GFSGL_sfc_rhum_159.txt.gz
RH
70 70 72 78 83 80 89 90 94 95 94 88 80 78 72 72 73 77 78 70 70 67 63 58 64 69 59 58 55 55 56 58 78 68 66 69 75 70 66 67 65 60 53
70 75 82 80 89 87 93 95 92 93 92 82 82 72 70 72 74 81 76 68 66 65 61 64 62 58 74 69 57 71 67 76 80 87 78 80 82 78 77 78 69 54 55
69 74 81 87 94 91 92 88 84 83 87 74 71 71 72 75 78 75 79 69 66 61 60 62 61 69 75 67 73 74 79 76 84 98 96 81 76 77 82 80 79 77 67
71 76 81 89 92 94 92 84 83 79 77 76 70 70 75 73 70 69 68 68 66 57 61 61 61 70 77 80 76 86 84 89 95 98 98 98 92 78 83 84 83 78 75
76 78 82 88 88 86 85 81 75 80 79 69 67 72 72 65 54 67 68 73 68 66 60 55 56 74 84 83 86 90 91 94 98 98 98 97 90 93 97 90 96 81 82
79 84 85 89 90 92 87 85 83 81 73 68 72 69 69 54 78 88 79 68 64 64 63 60 68 71 71 84 85 86 87 98 98 99 99 98 96 93 92 98 99 99 98
83 83 87 90 91 88 86 84 81 75 71 73 72 72 70 67 89 92 79 60 63 61 62 67 66 53 74 75 77 81 77 85 90 98 99 97 97 94 95 98 97 97 96
86 87 87 88 87 84 86 81 77 73 74 72 75 76 76 68 91 92 81 67 63 58 59 68 72 71 72 76 74 75 82 93 93 91 95 97 96 91 96 97 95 96 97
82 84 85 85 84 82 82 80 76 74 75 75 74 78 78 73 94 87 82 64 54 58 57 68 72 71 79 85 77 86 91 88 82 86 92 92 97 97 97 99 99 99 98
78 80 84 84 81 80 79 81 78 74 74 64 74 73 84 76 88 90 72 43 52 48 60 65 76 76 88 87 75 83 93 93 96 94 94 93 95 98 97 97 96 99 98
78 81 83 83 82 79 81 80 78 76 75 78 75 78 78 79 80 86 86 51 45 45 46 52 52 82 87 88 88 66 83 89 93 97 97 96 96 97 99 98 94 98 99
80 82 82 82 72 72 80 78 77 79 81 81 80 74 68 75 83 82 84 82 76 58 60 52 56 83 84 84 63 82 83 76 75 98 97 98 98 98 99 99 98 98 99
91 88 84 81 76 76 78 79 70 77 65 69 70 72 65 61 51 80 84 85 80 53 52 64 78 77 73 59 72 76 68 58 61 90 98 99 99 98 96 96 97 97 95
87 88 86 83 84 78 71 66 61 62 73 86 71 80 64 53 48 48 47 46 66 50 59 42 51 58 65 62 54 50 50 52 54 57 88 96 97 97 98 98 98 98 97
84 83 83 87 91 87 91 72 63 74 82 67 60 61 59 48 46 66 62 47 45 58 53 35 32 33 37 42 47 50 50 49 50 50 52 59 74 95 93 96 97 97 98
84 81 87 96 83 91 88 91 99 99 100 100 100 79 51 69 83 86 88 86 81 75 37 32 32 33 38 41 45 48 48 53 52 50 48 54 54 49 56 66 81 90 96
88 80 76 88 90 93 97 94 91 98 97 99 96 83 67 75 88 89 85 82 76 57 31 31 34 35 39 39 42 47 50 53 58 47 48 49 47 50 48 49 52 44 47
86 99 73 73 78 89 78 84 89 68 63 57 85 64 88 87 87 88 84 75 41 40 33 34 39 41 42 42 43 48 50 52 50 45 44 46 45 41 43 48 48 50 41
80 73 73 70 69 74 82 76 64 64 60 51 48 62 78 91 90 87 81 43 40 36 34 34 38 45 46 44 48 53 56 52 52 45 42 42 41 40 42 40 43 58 54
85 94 87 72 70 67 65 67 70 70 65 50 44 43 45 53 55 70 58 48 42 37 35 33 32 37 48 55 52 51 49 50 50 46 46 42 39 38 35 35 36 38 37
68 78 88 69 64 65 66 64 69 68 61 50 47 46 64 52 67 49 48 48 42 39 37 34 26 30 36 44 52 54 50 50 51 51 50 47 46 40 40 38 36 35 37
64 64 75 62 59 61 64 68 68 63 58 52 46 57 87 60 55 47 50 46 43 43 37 39 32 30 36 43 50 48 47 51 54 54 53 46 44 45 43 41 37 36 36
56 58 59 61 60 76 63 64 62 60 53 59 63 72 88 80 57 44 46 44 44 42 38 35 32 28 35 41 45 52 47 53 55 55 52 45 42 44 41 41 40 39 40
57 57 59 58 56 56 61 64 62 69 62 65 80 90 72 59 42 45 43 44 44 40 36 34 33 34 38 38 42 43 51 58 54 50 54 48 45 49 42 42 40 43 39
55 58 60 64 62 57 61 57 61 59 58 74 79 74 47 40 42 44 45 44 41 38 36 31 29 34 41 48 50 51 82 94 70 85 46 48 50 51 46 41 43 40 43
54 55 53 53 54 55 54 60 56 49 48 65 58 44 38 39 40 43 43 41 38 36 35 31 32 35 36 38 54 84 92 93 73 92 50 43 44 43 41 43 44 38 42

GFSGL_sfc_rhum_162.txt.gz
RH
56 56 59 63 64 74 66 68 72 77 84 74 70 66 65 64 60 64 64 57 58 57 55 53 56 58 41 41 45 45 44 44 49 49 46 51 77 79 73 72 68 70 59
55 62 66 64 66 71 73 69 75 84 74 69 67 67 67 60 61 64 62 49 56 55 55 57 56 43 59 58 46 63 58 58 54 73 64 68 82 82 80 81 71 59 65
54 59 67 71 75 79 78 78 81 85 69 61 67 70 65 63 62 64 61 55 55 54 55 56 56 56 59 55 64 59 51 55 56 61 83 79 78 76 84 84 84 83 72
52 59 66 67 71 73 75 80 83 76 71 66 66 66 64 60 60 62 56 56 57 53 56 57 53 51 57 70 66 68 65 66 66 83 96 94 91 86 95 95 86 76 73
57 61 64 65 66 74 81 76 73 71 76 67 65 64 60 56 48 57 52 54 61 60 57 53 45 56 77 77 65 72 78 70 76 97 97 91 82 82 94 88 96 86 83
58 62 63 67 82 84 85 80 83 80 69 70 65 58 58 45 77 76 73 58 59 61 61 55 49 55 58 77 81 78 77 80 93 99 98 98 95 92 91 98 99 99 98
64 63 67 81 86 89 87 87 86 78 73 71 62 58 58 56 84 88 85 57 57 58 60 53 45 35 59 59 63 70 71 76 81 95 99 98 98 97 96 98 98 97 93
67 69 83 87 86 89 93 86 79 74 72 65 63 62 61 57 87 92 87 68 61 58 51 49 53 58 63 66 62 63 63 64 72 74 95 97 98 98 98 96 97 97 96
68 76 81 84 83 86 85 78 74 70 69 65 61 64 66 64 91 94 82 59 53 52 46 51 56 61 79 82 63 68 69 65 70 77 86 91 92 96 99 99 99 99 96
66 69 78 80 82 83 78 77 74 70 68 52 61 63 69 63 94 91 75 45 47 40 48 45 78 67 79 83 64 64 68 70 71 75 89 93 93 94 96 98 99 99 99
64 69 74 77 81 79 85 83 80 73 66 66 65 65 64 67 80 85 78 47 38 33 33 32 34 76 80 83 84 58 65 71 63 68 95 97 96 96 98 98 98 99 99
65 69 72 75 70 79 85 79 75 72 71 70 69 62 56 71 83 82 81 76 69 48 42 33 44 73 76 77 67 78 80 70 46 49 80 97 98 98 98 98 97 98 99
73 74 80 83 77 76 75 78 64 70 53 57 55 60 59 60 48 83 80 77 75 46 38 52 67 69 66 56 72 75 64 44 45 43 52 80 97 98 96 96 95 96 95
82 80 84 80 84 76 60 58 52 51 48 50 61 60 65 55 45 42 41 44 70 48 56 38 42 54 59 49 44 43 42 44 42 41 42 46 76 95 94 97 98 98 98
75 74 73 67 70 74 72 70 78 73 81 57 54 48 75 47 47 69 59 35 33 46 52 28 24 23 26 28 34 38 40 41 42 38 36 39 37 45 56 80 93 83 98
74 74 76 78 73 63 69 79 97 92 100 100 100 82 47 71 84 85 82 76 72 64 32 25 25 25 27 28 33 36 37 47 44 37 35 34 40 36 32 37 36 50 89
76 77 75 66 66 71 73 64 57 79 95 98 92 73 65 77 87 84 78 67 63 55 25 27 28 28 28 28 30 33 36 41 50 36 34 33 34 38 38 33 38 33 37
80 93 63 60 62 61 62 60 56 68 57 63 73 60 87 88 85 82 80 71 31 32 27 29 30 31 31 31 32 36 36 36 36 38 36 32 31 28 30 34 31 40 35
52 47 47 46 48 55 57 59 54 57 58 48 42 57 76 89 89 85 83 35 30 28 27 27 29 28 31 36 38 40 44 40 40 38 38 36 32 29 30 28 30 48 42
63 92 73 52 55 52 56 55 57 72 50 42 38 37 40 52 47 50 42 35 32 31 27 26 25 27 31 37 40 40 39 41 43 40 40 38 38 33 30 29 28 28 32
42 55 81 44 42 43 43 49 60 59 49 42 39 40 60 48 49 42 37 34 33 34 30 27 19 22 26 31 37 35 33 34 38 40 39 37 37 35 38 33 30 28 30
38 39 47 41 43 44 44 51 55 58 57 44 39 47 76 45 44 42 36 35 35 34 30 31 24 23 26 31 36 34 31 33 38 40 38 34 33 33 32 31 31 32 32
36 38 40 41 40 66 49 54 53 54 52 45 40 40 43 51 42 37 36 33 34 32 29 26 24 24 28 30 32 36 32 38 41 41 41 36 33 35 32 32 32 31 34
39 39 37 39 42 46 53 56 55 57 46 43 43 54 88 82 50 42 32 33 32 30 26 25 26 28 31 30 32 31 39 49 45 38 43 38 36 39 32 33 31 36 32
38 40 40 43 43 56 56 56 47 50 56 58 56 63 51 59 37 33 34 33 30 27 27 23 23 29 35 40 41 43 79 93 66 81 37 37 39 40 36 32 34 33 37
43 43 42 38 39 43 63 70 49 48 51 58 65 61 45 34 32 33 33 31 28 26 26 25 28 32 30 33 47 81 90 92 69 93 58 34 36 34 32 35 36 31 36

GFSGL_sfc_rhum_165.txt.gz
RH
56 57 63 66 68 71 69 67 68 67 73 88 80 68 63 65 64 65 64 59 57 58 55 56 57 63 46 45 41 41 42 45 53 50 48 52 67 71 67 67 70 72 73
56 63 67 67 68 70 72 68 68 72 72 88 87 78 66 63 63 64 62 54 53 56 54 57 57 46 64 64 42 62 56 60 57 75 64 56 68 75 78 80 71 63 68
55 61 68 72 75 77 76 76 73 73 75 76 75 80 74 66 63 61 60 57 54 52 53 56 56 59 66 55 61 58 53 55 58 60 62 55 71 74 82 84 79 77 71
50 59 68 68 71 70 74 73 74 78 77 77 85 87 69 63 61 60 56 58 54 52 53 55 55 55 60 64 61 68 64 66 63 61 62 77 76 91 90 92 86 80 84
55 60 65 65 65 65 76 79 79 82 74 73 69 64 63 58 49 56 54 52 54 56 55 54 51 57 67 70 55 67 74 63 66 78 72 82 87 87 91 82 97 88 83
55 59 62 66 64 73 74 74 76 81 83 73 66 63 62 46 80 76 64 49 53 58 60 56 55 56 54 72 79 73 73 75 90 82 90 97 95 93 96 98 99 99 98
61 58 61 66 72 77 75 85 87 86 80 79 75 65 60 56 83 82 80 48 54 55 60 60 49 35 55 59 65 67 64 75 81 78 93 96 98 97 98 98 99 99 95
60 60 67 76 77 80 85 91 89 86 84 84 77 66 62 60 87 88 82 60 59 59 58 53 53 56 66 64 60 58 57 61 64 66 83 92 98 97 98 99 99 98 98
61 70 78 77 82 88 90 86 84 85 81 73 66 65 66 71 88 90 85 57 56 60 51 49 50 52 78 75 62 63 64 60 62 77 79 86 92 93 96 98 99 99 97
64 73 79 80 80 82 82 84 82 79 78 58 66 69 66 64 93 92 79 50 52 43 54 50 75 64 76 77 63 62 64 63 66 67 68 90 91 93 91 98 98 99 99
59 66 74 75 78 78 82 78 80 77 74 74 68 71 62 64 85 88 74 55 43 38 35 35 42 75 72 75 82 61 60 67 69 61 57 94 95 94 97 98 98 99 99
60 67 69 71 72 82 84 82 76 74 76 75 72 64 57 72 89 81 79 69 64 46 45 33 39 64 68 71 65 74 72 72 48 43 52 59 95 92 95 97 97 97 98
70 78 80 85 86 84 86 79 86 72 74 67 77 78 74 64 60 83 78 74 71 45 38 49 60 66 69 53 77 74 70 44 42 37 39 44 84 94 96 94 92 94 94
77 80 76 80 79 80 69 62 83 81 78 72 89 72 71 71 51 44 46 46 73 54 54 40 43 47 56 57 40 38 37 47 47 37 36 41 38 47 44 92 95 96 97
70 71 75 80 82 88 91 93 91 90 86 84 62 78 70 78 55 66 55 36 32 46 52 30 25 25 27 28 30 34 37 45 42 35 35 41 38 36 36 42 43 58 94
62 57 62 66 92 86 85 71 96 97 100 100 99 70 54 74 77 71 69 63 66 69 34 26 27 28 28 29 31 33 36 47 39 36 41 43 34 33 35 33 38 39 47
54 68 70 71 74 81 74 71 70 84 92 84 78 72 67 72 75 74 69 64 55 53 26 27 29 31 31 29 30 33 34 38 53 36 38 42 41 35 36 31 35 41 37
60 85 71 75 69 71 65 65 65 60 62 52 71 66 85 80 76 74 72 70 32 33 26 27 29 31 32 33 33 36 37 36 39 38 37 36 34 36 33 32 31 38 35
60 55 49 41 42 56 60 56 47 65 55 48 46 60 74 84 82 81 82 37 28 26 24 25 28 29 31 32 36 39 45 40 42 40 40 38 38 38 40 35 29 44 39
54 79 64 48 51 53 53 52 64 60 53 44 42 39 40 47 39 40 37 33 30 26 26 29 25 28 32 35 36 34 33 36 40 37 36 35 35 34 35 34 32 30 31
38 47 73 48 45 47 56 43 56 71 56 41 39 40 56 37 38 40 33 32 29 28 30 29 20 24 28 31 35 32 28 30 34 37 37 34 34 32 32 31 33 32 33
31 38 38 33 35 50 50 54 64 65 49 43 41 45 69 40 38 39 32 31 31 31 28 32 24 25 27 30 34 32 29 32 37 38 38 33 32 32 31 30 29 31 33
29 29 31 34 33 50 37 43 42 45 44 39 40 39 39 42 40 37 33 30 31 29 26 25 26 26 28 30 30 34 31 36 39 38 39 34 33 34 31 31 31 32 34
30 30 29 29 31 34 51 44 62 67 43 40 41 39 41 54 59 51 32 30 29 27 25 25 28 30 32 29 30 30 39 50 46 38 48 36 34 38 31 32 30 35 32
30 31 30 33 39 46 44 47 59 53 53 49 43 58 53 64 42 40 31 32 28 26 25 24 26 33 36 37 38 41 77 90 66 83 45 38 36 38 34 31 32 33 36
36 40 43 47 54 72 71 47 50 48 48 48 52 44 52 52 50 31 31 29 26 25 26 27 30 32 32 32 45 78 88 89 69 90 59 35 35 33 32 34 34 31 36

GFSGL_sfc_rhum_168.txt.gz
RH
67 70 73 76 77 80 78 76 73 76 78 85 87 84 82 79 83 90 82 78 77 78 73 73 75 76 76 74 73 71 65 66 73 66 64 64 73 71 70 68 71 71 69
63 72 75 76 78 79 81 78 76 77 82 84 86 89 81 82 85 82 79 72 77 76 74 74 72 63 80 80 76 80 73 75 76 83 70 69 73 73 72 76 74 70 74
57 68 73 79 81 83 82 82 80 79 78 82 89 88 85 84 82 79 79 76 70 68 70 70 73 75 82 81 80 77 72 74 72 72 75 70 69 66 72 79 90 87 73
55 66 73 75 78 78 80 81 81 80 82 86 88 89 90 87 80 77 76 73 73 67 70 68 71 74 76 79 75 82 81 79 72 73 85 74 71 70 81 88 90 75 76
60 66 72 73 74 75 78 77 79 81 88 91 89 86 86 79 66 77 74 73 75 72 67 68 68 69 74 76 75 85 85 75 73 87 87 78 75 80 94 91 98 82 81
60 66 71 75 75 77 78 81 83 87 88 85 84 84 82 66 75 80 74 73 68 70 77 73 72 69 69 79 81 73 75 81 89 94 82 88 80 91 97 99 99 98 99
67 67 72 76 78 80 82 83 87 88 87 86 84 83 83 77 86 80 70 67 68 74 76 78 66 46 75 73 74 72 73 76 82 88 94 89 93 98 98 98 97 98 99
69 69 73 77 77 82 84 86 89 89 89 87 85 83 82 75 86 84 78 71 72 73 75 71 74 72 78 75 75 75 72 74 76 66 86 87 93 96 97 99 99 98 96
68 71 74 80 84 85 88 90 91 89 90 90 85 81 86 83 90 89 84 73 74 76 73 71 75 80 71 70 76 79 78 73 65 72 81 85 87 85 90 98 98 99 98
68 79 82 83 86 89 88 93 92 89 91 82 82 82 79 90 96 92 83 74 75 73 72 75 69 67 66 71 78 80 80 70 71 70 75 84 88 89 83 96 99 99 99
80 80 84 85 89 90 92 91 89 83 84 83 80 82 82 88 94 87 75 77 69 64 63 64 60 69 73 73 76 79 77 75 74 65 73 84 92 93 96 96 96 99 99
77 80 84 87 80 84 90 87 86 87 86 85 84 82 85 90 89 80 70 65 68 72 71 65 62 57 62 73 73 67 77 74 55 56 51 52 73 53 84 97 95 96 97
80 82 86 85 86 87 89 87 80 84 77 81 90 84 95 86 75 80 69 65 67 71 69 64 61 64 66 71 66 73 65 54 54 55 52 53 54 46 81 92 94 91 93
88 90 90 89 87 85 78 78 80 75 88 93 86 96 94 85 82 64 63 64 76 74 63 70 61 59 58 57 61 58 55 57 56 54 53 51 62 48 46 44 93 84 89
83 84 82 80 82 89 85 89 81 90 95 94 93 94 95 98 85 72 68 64 62 66 67 66 63 60 59 59 61 62 63 63 58 58 55 52 48 56 43 45 44 77 89
77 72 68 70 78 81 81 88 99 98 97 99 100 91 91 90 77 66 65 58 55 62 64 62 60 57 55 55 56 56 56 57 62 58 57 55 53 50 59 46 47 51 59
69 68 68 71 77 82 84 87 84 80 84 85 81 75 64 68 69 66 61 59 60 66 60 54 56 55 52 52 49 51 52 61 68 58 57 54 53 52 49 59 50 51 50
68 82 63 64 73 77 79 83 70 72 64 57 75 67 78 74 74 72 65 70 53 57 45 48 53 54 54 55 53 53 55 60 59 62 61 59 55 52 49 48 50 55 56
52 51 54 59 63 69 69 75 62 62 60 60 53 59 71 81 77 74 81 62 46 39 40 43 52 55 54 54 62 64 67 61 63 65 62 62 62 56 54 48 43 54 60
60 73 65 54 57 62 64 71 78 74 60 56 50 44 44 52 50 54 60 53 43 37 38 39 50 57 58 62 64 64 55 58 59 55 57 62 53 55 50 51 47 45 48
42 48 74 45 40 43 48 52 60 81 54 51 51 48 57 44 46 48 43 44 40 40 42 44 31 45 53 56 60 52 45 45 51 54 53 56 54 51 55 50 52 44 46
42 38 43 40 57 55 48 71 65 54 48 49 46 51 68 45 42 44 42 41 41 46 41 54 43 43 44 50 52 46 42 45 50 52 55 51 51 48 50 48 46 51 45
30 39 36 43 59 58 53 77 68 77 67 51 45 44 43 44 42 42 42 38 41 39 41 43 44 40 43 45 44 50 45 52 58 54 60 52 50 50 51 52 48 51 52
30 30 30 43 42 50 49 58 60 72 68 48 44 46 45 45 39 48 42 38 39 37 39 40 42 41 44 41 43 42 51 63 63 56 63 59 51 52 50 50 48 52 50
41 35 38 53 59 44 45 58 66 67 56 52 43 45 52 54 47 49 41 40 36 37 41 41 44 45 44 43 46 48 80 91 73 88 59 59 52 54 48 47 52 51 52
44 40 40 40 44 49 65 76 70 81 59 46 53 55 53 44 49 48 40 36 33 32 35 38 39 41 38 38 51 77 87 88 75 87 69 53 49 47 48 50 48 45 48

GFSGL_sfc_rhum_171.txt.gz
RH
72 74 76 78 83 84 80 86 84 88 86 95 93 93 92 94 94 96 88 95 95 83 78 76 74 79 89 86 87 89 83 89 95 75 78 64 75 73 68 62 64 65 66
69 72 78 79 80 85 88 83 94 79 92 97 95 95 94 94 95 95 94 96 92 88 79 81 81 71 82 89 88 83 90 94 96 84 74 73 81 79 67 66 65 65 71
68 74 78 81 84 83 86 90 85 88 92 97 95 94 95 95 96 95 94 95 87 76 79 80 76 81 89 83 88 89 95 91 93 95 82 85 83 73 70 65 75 72 68
64 73 79 80 81 84 85 92 93 90 93 97 96 95 96 95 95 93 93 90 84 74 73 73 74 82 77 85 84 93 89 95 93 94 93 96 84 74 70 79 86 81 92
54 70 74 76 80 81 93 94 94 95 94 97 97 97 96 96 93 93 89 88 84 75 73 72 76 74 73 76 84 89 91 94 96 96 98 95 90 86 86 97 99 98 91
60 60 76 78 89 90 95 95 95 95 98 98 97 97 97 88 88 90 82 83 84 76 76 83 77 75 78 79 80 73 79 92 95 97 95 96 96 86 94 98 99 98 98
59 70 85 85 94 95 93 94 95 97 97 94 92 93 95 84 93 88 84 85 80 77 80 84 76 67 80 76 73 75 80 78 84 90 94 91 98 93 95 93 97 98 99
82 86 90 89 92 94 95 94 98 96 94 92 95 92 91 92 88 88 79 73 73 76 76 84 82 77 70 66 71 82 87 88 80 74 81 82 96 96 95 97 97 98 96
90 89 89 87 93 95 97 98 97 94 95 96 95 94 89 93 93 85 80 80 82 86 82 85 74 64 72 71 67 85 87 88 68 74 78 83 88 88 88 96 95 98 98
90 95 95 95 95 96 96 96 96 93 94 94 95 95 89 88 94 87 86 89 86 83 67 52 65 48 64 69 64 80 93 80 78 73 69 83 85 89 85 96 97 99 99
94 92 93 93 93 92 95 97 97 97 94 95 93 95 91 89 95 89 85 75 70 69 81 68 51 65 71 70 75 67 83 79 73 74 65 74 80 78 91 96 95 99 99
90 93 96 96 92 94 97 96 94 94 96 93 91 98 98 91 89 79 79 68 69 66 80 72 64 60 60 71 71 76 78 73 71 66 64 50 53 44 48 95 94 94 96
91 94 96 96 98 93 91 97 90 95 91 92 97 99 99 88 82 80 73 68 69 70 77 65 65 67 68 70 73 68 71 72 72 67 71 53 48 56 58 82 92 88 92
98 98 98 97 97 95 91 95 96 97 97 98 97 99 98 97 95 91 60 61 71 73 74 66 73 68 73 66 72 71 66 76 75 73 72 64 51 57 38 55 87 80 70
97 98 98 97 97 99 97 98 97 99 100 97 98 98 98 98 98 85 72 78 80 59 59 73 65 65 64 65 73 73 69 72 81 73 61 56 52 52 56 46 50 70 84
98 98 98 99 98 96 92 89 84 90 91 98 100 98 98 96 88 80 69 66 65 60 70 65 68 69 70 70 71 73 75 76 77 72 67 61 58 58 54 55 56 57 67
96 96 97 90 87 86 88 87 80 74 80 84 84 82 79 77 72 68 69 64 64 64 63 65 68 66 71 70 72 76 72 74 75 71 68 69 68 61 58 57 48 61 60
91 93 96 98 96 93 88 79 78 73 66 68 73 71 79 78 76 72 67 64 56 62 59 61 66 65 71 72 70 72 71 68 72 78 73 71 70 63 58 62 60 55 67
76 79 85 94 97 97 97 86 77 68 73 59 59 67 78 81 78 78 76 78 61 61 60 59 68 66 64 66 69 76 72 70 75 72 71 73 62 73 65 63 58 63 64
78 78 84 91 92 95 94 92 90 76 64 64 62 62 66 69 67 71 78 61 58 57 58 56 63 66 68 67 68 78 72 72 72 74 73 74 65 69 66 66 57 59 60
80 74 77 81 87 89 87 87 73 74 68 64 62 62 70 64 67 73 68 64 62 60 58 59 59 59 65 70 70 71 70 74 74 76 78 76 65 65 71 64 66 58 59
65 71 75 71 68 69 82 80 71 68 68 64 60 58 72 64 72 59 60 56 63 56 57 63 61 63 68 68 71 69 71 77 82 83 86 79 75 68 68 63 67 67 63
67 60 63 74 72 75 78 88 82 78 58 62 59 59 62 63 62 56 54 56 57 56 65 66 66 67 68 67 69 77 78 82 87 84 83 84 81 68 66 65 63 68 69
63 59 55 62 72 74 80 86 84 78 61 54 55 56 69 66 56 54 54 59 58 62 64 64 59 58 60 63 68 71 80 86 87 79 78 82 84 69 67 65 65 65 67
60 62 65 72 68 64 68 75 72 64 54 52 51 63 66 58 59 49 51 59 59 62 63 64 60 56 58 59 64 70 86 92 82 88 80 76 70 60 67 68 64 62 58
60 60 65 69 75 78 73 83 82 79 54 52 65 64 63 58 61 57 56 47 52 59 62 65 56 54 55 60 67 81 89 90 82 86 80 71 70 69 71 67 52 59 54

GFSGL_sfc_rhum_174.txt.gz
RH
74 74 75 81 82 82 76 79 85 95 93 94 96 97 96 96 98 98 96 97 96 98 92 84 84 84 87 94 94 93 84 94 98 94 96 72 88 89 85 79 68 65 65
70 73 77 76 82 85 85 79 85 82 92 94 97 97 97 96 98 97 98 95 96 97 91 89 81 76 86 91 92 88 91 96 98 87 87 83 88 87 93 77 68 62 68
67 73 78 79 82 87 87 90 95 96 94 96 97 97 97 98 98 97 96 97 97 96 88 86 82 83 88 88 90 90 96 90 95 98 91 94 94 95 82 72 66 89 84
64 74 76 82 82 83 89 96 96 96 95 98 98 96 98 98 97 96 96 97 96 86 83 80 76 84 78 79 83 92 91 92 95 98 98 97 97 81 84 70 87 94 97
68 71 74 75 82 87 91 96 97 96 94 96 99 99 98 97 95 96 96 96 89 86 86 78 81 76 74 75 86 90 89 94 97 98 98 96 79 78 77 92 95 94 95
64 70 71 82 88 93 96 97 96 96 98 99 99 98 97 92 97 96 94 90 90 89 82 85 84 75 82 80 74 73 81 93 95 99 97 90 78 80 97 95 95 98 98
55 66 81 89 93 95 96 96 97 99 99 99 98 96 98 97 95 94 91 95 93 85 87 85 80 71 74 65 64 70 77 77 80 92 93 80 91 91 97 96 92 97 98
76 79 89 91 94 94 96 97 98 99 98 98 98 98 97 95 88 89 87 91 90 79 85 89 86 68 67 59 64 77 80 83 81 75 88 84 93 95 98 96 98 96 92
89 93 91 89 95 96 97 98 98 98 98 98 98 95 94 94 87 91 85 80 83 81 84 74 63 53 68 71 68 75 79 72 66 74 78 77 80 81 86 98 92 98 96
96 96 93 91 93 96 96 97 98 98 99 98 98 94 90 92 93 89 84 81 69 56 51 54 60 50 67 68 60 72 78 74 81 80 68 68 78 85 75 95 97 99 98
97 96 96 95 96 97 99 98 98 96 93 95 98 95 90 90 94 92 85 72 80 78 66 60 46 66 63 76 73 68 74 84 73 76 72 66 65 68 82 96 94 98 99
97 98 98 98 97 98 98 96 93 96 98 98 99 98 98 96 89 87 78 73 75 79 69 71 61 61 77 77 67 73 78 74 74 73 74 66 60 57 54 90 93 93 95
97 97 98 97 96 94 91 97 99 98 98 99 99 99 99 90 90 80 74 79 78 81 71 67 67 75 75 73 79 77 75 83 82 78 76 70 63 61 60 73 89 90 89
97 98 97 96 99 99 99 99 99 99 99 99 99 99 99 98 94 87 60 71 73 73 62 73 77 73 78 80 72 72 75 87 87 82 74 70 60 56 64 55 74 80 81
97 98 99 98 98 96 97 100 99 99 99 99 99 98 98 98 97 84 66 66 68 56 70 63 63 66 70 75 80 77 78 80 80 79 73 66 60 62 56 57 58 62 58
98 98 98 97 94 85 81 78 84 91 96 100 100 99 99 99 98 87 86 80 70 75 63 67 74 76 74 78 79 72 75 74 80 79 75 73 68 64 62 57 56 66 66
99 99 99 88 87 87 84 86 74 71 81 85 94 97 96 99 96 80 76 76 77 63 62 68 71 73 76 74 77 78 73 76 82 81 80 78 75 62 61 60 59 64 66
98 100 98 98 86 87 83 77 74 81 76 69 71 75 80 79 76 74 75 64 56 61 63 65 70 74 77 77 80 78 72 74 76 80 81 76 74 74 63 62 64 69 68
96 99 98 99 98 99 93 87 77 75 65 58 51 59 74 83 83 82 81 69 60 63 66 70 69 67 73 75 84 83 77 77 79 82 83 78 75 76 71 65 63 69 71
86 93 98 98 99 98 97 94 91 74 67 61 56 56 59 57 57 77 66 61 62 60 61 67 71 74 76 75 82 81 80 80 83 86 88 87 76 75 72 72 68 67 70
87 90 92 97 98 98 96 95 82 74 66 65 61 64 72 55 79 64 63 62 62 65 64 66 67 74 76 74 76 77 81 83 89 91 91 90 84 75 73 71 72 70 71
82 83 92 96 98 97 98 90 80 74 68 62 65 63 81 76 72 66 64 62 61 63 65 71 75 73 72 72 76 73 79 86 87 87 87 88 84 77 72 71 72 73 70
76 78 82 85 88 90 84 86 78 74 69 69 58 61 66 71 66 60 58 61 68 72 75 72 74 73 73 73 78 80 81 87 89 83 83 84 81 79 73 74 73 70 70
66 69 72 83 84 82 87 86 76 75 68 66 58 60 67 76 62 60 57 63 65 69 69 68 67 66 69 74 78 80 82 84 85 82 80 82 76 76 72 71 71 67 65
67 72 75 80 80 86 89 87 77 65 64 62 56 59 72 60 59 56 61 64 65 67 68 66 65 60 61 63 70 75 87 91 82 88 83 78 71 72 73 72 64 65 60
77 79 83 83 83 84 80 76 73 77 62 59 58 61 56 58 53 54 59 60 66 70 68 66 59 56 58 65 72 83 88 90 84 90 79 70 72 73 70 62 57 64 63